When you browse on this site, cookies collect data to enhance your experience and personalize the content and advertising you see.
Visit our Privacy Policy to learn more. By continuing to use the site, you agree to this use of cookies and data.
  • In Slovakia
  • List of Countries
  • For 7 days
  • Water Temperature
  • Weather Map
  • Weather Widgets
  • user-avatar
    Login

    Hourly Weather Saurimo

    Today, 14 December, Saturday

    Time Temperature Precipitation Wind Pressure Humidity
    00:00 +21°C° 0 mm 1 mps 669 mmHg 96%
    01:00 +21°C° 0 mm 1 mps 669 mmHg 97%
    02:00 +18°C° 0.1 mm 0 mps 669 mmHg 97%
    03:00 +18°C° 0.1 mm 0 mps 669 mmHg 97%
    04:00 +18°C° 0.1 mm 0 mps 669 mmHg 97%
    05:00 +19°C° 0.5 mm 0 mps 670 mmHg 96%
    06:00 +19°C° 0.5 mm 0 mps 670 mmHg 96%
    07:00 +22°C° 0.5 mm 1 mps 671 mmHg 95%
    08:00 +23°C° 1.1 mm 1 mps 671 mmHg 94%
    09:00 +23°C° 1.1 mm 1 mps 671 mmHg 92%
    10:00 +24°C° 1.1 mm 2 mps 671 mmHg 90%
    11:00 +25°C° 0.6 mm 2 mps 671 mmHg 85%
    12:00 +27°C° 0.6 mm 1 mps 670 mmHg 79%
    13:00 +28°C° 0.6 mm 1 mps 670 mmHg 74%
    14:00 +28°C° 0.3 mm 1 mps 669 mmHg 74%
    15:00 +25°C° 0.3 mm 0 mps 669 mmHg 75%
    16:00 +25°C° 0.3 mm 0 mps 668 mmHg 76%
    17:00 +24°C° 1.3 mm 0 mps 668 mmHg 82%
    18:00 +24°C° 1.3 mm 1 mps 669 mmHg 88%
    19:00 +22°C° 1.3 mm 1 mps 669 mmHg 93%
    20:00 +22°C° 1.5 mm 1 mps 670 mmHg 93%
    21:00 +22°C° 1.5 mm 1 mps 670 mmHg 93%
    22:00 +22°C° 1.5 mm 1 mps 670 mmHg 93%
    23:00 +21°C° 0.3 mm 1 mps 670 mmHg 94%

    Tomorrow, 15 December, Sunday

    Time Temperature Precipitation Wind Pressure Humidity
    00:00 +21°C° 0.3 mm 1 mps 670 mmHg 94%
    01:00 +21°C° 0.3 mm 1 mps 669 mmHg 94%
    02:00 +21°C° 0.5 mm 1 mps 669 mmHg 95%
    03:00 +21°C° 0.5 mm 1 mps 669 mmHg 96%
    04:00 +21°C° 0.5 mm 1 mps 669 mmHg 97%
    05:00 +21°C° 0.2 mm 1 mps 669 mmHg 96%
    06:00 +21°C° 0.2 mm 1 mps 670 mmHg 96%
    07:00 +20°C° 0.2 mm 0 mps 670 mmHg 96%
    08:00 +24°C° 0.1 mm 1 mps 671 mmHg 87%
    09:00 +26°C° 0.1 mm 1 mps 671 mmHg 79%
    10:00 +28°C° 0.1 mm 1 mps 671 mmHg 71%
    11:00 +28°C° 0.2 mm 1 mps 671 mmHg 68%
    12:00 +29°C° 0.2 mm 1 mps 670 mmHg 64%
    13:00 +30°C° 0.2 mm 1 mps 669 mmHg 61%
    14:00 +28°C° 1.7 mm 1 mps 669 mmHg 71%
    15:00 +27°C° 1.7 mm 1 mps 668 mmHg 81%
    16:00 +25°C° 1.7 mm 2 mps 667 mmHg 90%
    17:00 +24°C° 1.1 mm 2 mps 668 mmHg 92%
    18:00 +23°C° 1.1 mm 1 mps 668 mmHg 94%
    19:00 +22°C° 1.1 mm 1 mps 669 mmHg 95%
    20:00 +22°C° 0.1 mm 1 mps 669 mmHg 96%
    21:00 +21°C° 0.1 mm 1 mps 670 mmHg 96%
    22:00 +21°C° 0.1 mm 1 mps 670 mmHg 97%
    23:00 +21°C° 0 mm 1 mps 670 mmHg 97%

    Day after tomorrow, 16 December, Monday

    Time Temperature Precipitation Wind Pressure Humidity
    00:00 +20°C° 0 mm 1 mps 669 mmHg 97%
    01:00 +20°C° 0 mm 1 mps 669 mmHg 98%
    02:00 +20°C° 0 mm 1 mps 669 mmHg 98%
    03:00 +20°C° 0 mm 1 mps 669 mmHg 98%
    04:00 +20°C° 0 mm 1 mps 668 mmHg 98%
    05:00 +20°C° 0 mm 1 mps 669 mmHg 97%
    06:00 +20°C° 0 mm 2 mps 670 mmHg 96%
    07:00 +20°C° 0 mm 2 mps 670 mmHg 95%
    08:00 +21°C° 0.1 mm 2 mps 670 mmHg 94%
    09:00 +21°C° 0.1 mm 2 mps 671 mmHg 93%
    10:00 +21°C° 0.1 mm 2 mps 671 mmHg 92%
    11:00 +23°C° 0.2 mm 2 mps 670 mmHg 90%
    12:00 +23°C° 0.2 mm 2 mps 669 mmHg 87%
    13:00 +24°C° 0.2 mm 2 mps 669 mmHg 84%
    14:00 +24°C° 0.2 mm 2 mps 668 mmHg 83%
    15:00 +25°C° 0.2 mm 2 mps 668 mmHg 82%
    16:00 +25°C° 0.2 mm 1 mps 668 mmHg 81%
    17:00 +24°C° 0 mm 1 mps 668 mmHg 85%
    18:00 +23°C° 0 mm 1 mps 668 mmHg 89%
    19:00 +19°C° 0 mm 0 mps 668 mmHg 93%
    20:00 +19°C° 0.6 mm 0 mps 669 mmHg 94%
    21:00 +19°C° 0.6 mm 0 mps 669 mmHg 95%
    22:00 +19°C° 0.6 mm 0 mps 669 mmHg 95%
    23:00 +21°C° 0.5 mm 1 mps 669 mmHg 96%

    17 December, Tuesday

    Time Temperature Precipitation Wind Pressure Humidity
    00:00 +20°C° 0.5 mm 1 mps 669 mmHg 97%
    01:00 +20°C° 0.5 mm 1 mps 669 mmHg 97%
    02:00 +20°C° 0.5 mm 1 mps 668 mmHg 97%
    03:00 +20°C° 0.5 mm 1 mps 668 mmHg 97%
    04:00 +20°C° 0.5 mm 1 mps 668 mmHg 97%
    05:00 +20°C° 0.1 mm 1 mps 669 mmHg 96%
    06:00 +21°C° 0.1 mm 1 mps 670 mmHg 94%
    07:00 +22°C° 0.1 mm 1 mps 670 mmHg 93%
    08:00 +23°C° 1.1 mm 1 mps 670 mmHg 90%
    09:00 +23°C° 1.1 mm 0 mps 671 mmHg 87%
    10:00 +24°C° 1.1 mm 0 mps 671 mmHg 83%
    11:00 +24°C° 2.4 mm 0 mps 670 mmHg 83%
    12:00 +25°C° 2.4 mm 0 mps 670 mmHg 83%
    13:00 +25°C° 2.4 mm 0 mps 669 mmHg 83%
    14:00 +24°C° 1.7 mm 0 mps 669 mmHg 84%
    15:00 +26°C° 1.7 mm 1 mps 668 mmHg 84%
    16:00 +26°C° 1.7 mm 1 mps 668 mmHg 85%
    17:00 +25°C° 0.4 mm 1 mps 668 mmHg 88%
    18:00 +21°C° 0.4 mm 0 mps 668 mmHg 90%
    19:00 +20°C° 0.4 mm 0 mps 668 mmHg 93%
    20:00 +20°C° 0 mm 0 mps 669 mmHg 93%
    21:00 +20°C° 0 mm 0 mps 669 mmHg 93%
    22:00 +20°C° 0 mm 0 mps 669 mmHg 94%
    23:00 +19°C° 0 mm 0 mps 669 mmHg 94%

    18 December, Wednesday

    Time Temperature Precipitation Wind Pressure Humidity
    00:00 +19°C° 0 mm 0 mps 669 mmHg 95%
    01:00 +21°C° 0 mm 1 mps 668 mmHg 95%
    02:00 +21°C° 0.1 mm 1 mps 668 mmHg 96%
    03:00 +19°C° 0.1 mm 0 mps 668 mmHg 96%
    04:00 +19°C° 0.1 mm 0 mps 668 mmHg 96%
    05:00 +19°C° 0 mm 0 mps 669 mmHg 95%
    06:00 +20°C° 0 mm 0 mps 669 mmHg 94%
    07:00 +21°C° 0 mm 0 mps 670 mmHg 93%
    08:00 +24°C° 1.2 mm 1 mps 670 mmHg 90%
    09:00 +25°C° 1.2 mm 1 mps 670 mmHg 86%
    10:00 +26°C° 1.2 mm 2 mps 670 mmHg 83%
    11:00 +26°C° 1.8 mm 2 mps 669 mmHg 82%
    12:00 +27°C° 1.8 mm 2 mps 669 mmHg 82%
    13:00 +27°C° 1.8 mm 2 mps 668 mmHg 81%
    14:00 +26°C° 1.7 mm 2 mps 668 mmHg 84%
    15:00 +26°C° 1.7 mm 2 mps 667 mmHg 86%
    16:00 +26°C° 1.7 mm 2 mps 667 mmHg 89%
    17:00 +24°C° 0.4 mm 1 mps 667 mmHg 91%
    18:00 +23°C° 0.4 mm 1 mps 668 mmHg 92%
    19:00 +22°C° 0.4 mm 1 mps 668 mmHg 94%
    20:00 +21°C° 0.4 mm 2 mps 669 mmHg 94%
    21:00 +20°C° 0.4 mm 2 mps 669 mmHg 95%
    22:00 +20°C° 0.4 mm 2 mps 670 mmHg 95%
    23:00 +20°C° 0.1 mm 2 mps 669 mmHg 96%

    19 December, Thursday

    Time Temperature Precipitation Wind Pressure Humidity
    00:00 +20°C° 0.1 mm 2 mps 669 mmHg 96%
    01:00 +20°C° 0.1 mm 1 mps 669 mmHg 96%
    02:00 +20°C° 0 mm 1 mps 669 mmHg 96%
    03:00 +20°C° 0 mm 1 mps 669 mmHg 96%
    04:00 +20°C° 0 mm 1 mps 669 mmHg 96%
    05:00 +21°C° 0 mm 1 mps 669 mmHg 95%
    06:00 +21°C° 0 mm 1 mps 669 mmHg 94%
    07:00 +22°C° 0 mm 1 mps 670 mmHg 93%
    08:00 +23°C° 0 mm 1 mps 670 mmHg 86%
    09:00 +24°C° 0 mm 1 mps 670 mmHg 79%
    10:00 +25°C° 0 mm 2 mps 671 mmHg 72%
    11:00 +26°C° 0 mm 2 mps 670 mmHg 70%
    12:00 +26°C° 0 mm 2 mps 669 mmHg 68%
    13:00 +27°C° 0 mm 2 mps 669 mmHg 66%
    14:00 +27°C° 0.4 mm 2 mps 668 mmHg 71%
    15:00 +26°C° 0.4 mm 2 mps 668 mmHg 76%
    16:00 +26°C° 0.4 mm 2 mps 668 mmHg 81%
    17:00 +24°C° 0.7 mm 3 mps 668 mmHg 86%
    18:00 +22°C° 0.7 mm 3 mps 668 mmHg 90%
    19:00 +20°C° 0.7 mm 3 mps 668 mmHg 95%
    20:00 +20°C° 0 mm 2 mps 669 mmHg 96%
    21:00 +19°C° 0 mm 2 mps 669 mmHg 96%
    22:00 +19°C° 0 mm 2 mps 670 mmHg 97%
    23:00 +19°C° 0 mm 2 mps 669 mmHg 97%
    Show more